Regional Weather Roundup
Issued by NWS

Home | Current Version | Previous Version | Text Only | Print | Product List | Glossary On
Versions: 1 2 3 4 5 6 7 8 9 10 11 12 13 14 15 16 17 18 19 20 21 22 23 24 25 26 27 28 29 30 31 32 33 34 35 36 37 38 39 40 41 42 43 44 45 46 47 48 49 50
000
ASMX46 KSGX 301411
RWRMX

MEXICAN WEATHER ROUNDUP
NATIONAL WEATHER SERVICE SAN DIEGO CA
700 AM PDT MON MAR 30 2015

BAJA CALIFORNIA

CITY           SKY/WX    TMP DP  RH WIND       PRES   REMARKS
ENSENADA NW      N/A     57  32  38 E10       29.99R
LORETO         CLOUDY    75  70  83 CALM      29.92
MEXICALI       CLEAR     64  48  55 CALM      29.93
TIJUANA        CLOUDY    57  54  88 N6        30.03R FOG

NORTHWESTERN MEXICO

CITY           SKY/WX    TMP DP  RH WIND       PRES   REMARKS
CHIHUAHUA      CLOUDY    55  28  35 CALM      30.21R
CULIACAN       MOSUNNY   68  64  88 CALM      30.02R
GUAYMAS        CLOUDY    73  66  78 E5        29.92
HERMOSILLO     CLOUDY    73  50  43 CALM      30.01R
JUAREZ         CLOUDY    63  36  36 CALM      30.10S
OBREGON        CLOUDY    68  59  73 CALM      29.96

NORTHEASTERN MEXICO

CITY           SKY/WX    TMP DP  RH WIND       PRES   REMARKS
MATAMOROS      PTSUNNY   72  70  94 SE9       30.15R
MONCLOVA       PTSUNNY   66  45  45 NE6       30.12
MONTERREY      MOSUNNY   63  61  94 CALM      30.08R
NUEVO LAREDO   PTSUNNY   68  63  83 SE5       30.09S
PIEDRAS NEGRAS PTSUNNY   66  59  77 SE7       30.13R
REYNOSA        PTSUNNY   66  63  88 SE12      30.11R
SALTILLO       SUNNY     63  37  39 S9        30.27R
TORREON        MOSUNNY   61  41  48 SE3       30.21R
VICTORIA       SUNNY     63  63 100 W3        30.12R

WESTERN MEXICO

CITY           SKY/WX    TMP DP  RH WIND       PRES   REMARKS
AGUASCALIENTES SUNNY     52  41  66 N7        30.38R
COLIMA         MOSUNNY   72  54  53 CALM      30.12R
DURANGO        SUNNY     46  37  71 CALM      30.36R
GUADALAJARA    SUNNY     57  46  67 CALM      30.28R
MAZATLAN       SUNNY     57  54  88 N9        29.99S
PTO. VALLARTA  SUNNY     66  64  94 CALM      30.00R
TEPIC          SUNNY     54  50  87 CALM      30.15S
URUAPAN        SUNNY     55  50  82 CALM      30.28R
ZACATECAS      SUNNY     52  36  54 CALM      30.38R

CENTRAL MEXICO

CITY           SKY/WX    TMP DP  RH WIND       PRES   REMARKS
CUERNAVACA     MOSUNNY   70  48  46 CALM      30.26R
LEON           SUNNY     55  43  62 N5        30.41R
MEXICO CITY    SUNNY     54  41  62 E6        30.44R
MORELIA        SUNNY     54  48  82 CALM      30.35R
POZA RICA      MOSUNNY   68  66  94 NW7       30.17R
PUEBLA         SUNNY     48  39  71 NW6       30.42R
QUERETARO      SUNNY     50  45  81 CALM      30.42R
S. LUIS POTOSI SUNNY     46  46 100 CALM      30.37R FOG
TAMPICO        SUNNY     70  68  94 S7        30.14R
TOLUCA         SUNNY     46  43  87 CALM      30.49R FOG
VERACRUZ       PTSUNNY   68  63  83 W5        30.14R

SOUTHERN MEXICO

CITY           SKY/WX    TMP DP  RH WIND       PRES   REMARKS
ACAPULCO         N/A     77  72  83 CALM      30.01R
B. DE HUATULCO SUNNY     75  66  73 CALM      30.04R
MINATITLAN     CLOUDY    72  64  78 CALM      30.09R
OAXACA         MOSUNNY   59  52  77 W2        30.36R
PTO. ESCONDIDO MOSUNNY   75  68  78 E14       30.12R
TAPACHULA      MOSUNNY   79  72  78 CALM      30.00R
TUX. GUTIERREZ SUNNY     72  63  73 NW9       30.13R
VILLAHERMOSA   SUNNY     73  70  88 E12       30.13R
ZIHUATANEJO    MOSUNNY   72  66  83 CALM      30.01R

YUCATAN PENINSULA

CITY           SKY/WX    TMP DP  RH WIND       PRES   REMARKS
CAMPECHE       SUNNY     73  64  73 NE8       30.12R
CANCUN         PTSUNNY   79  66  65 E9        30.15R
CHETUMAL       PTSUNNY   79  72  78 CALM      30.10R
C. DEL CARMEN  MOSUNNY   77  68  73 E7        30.12R
COZUMEL        CLOUDY    73  68  83 E8        30.14R
MERIDA         SUNNY     75  66  73 NE9       30.15R

$$




USA.gov is the U.S. government's official web portal to all federal, state and local government web resources and services.